Danbury, CT

9:40 PM EDT on March 22, 2017 (GMT -0400)
Danbury Municipal

Weather History for KDXR - May, 2012

Change the Weather History Date:

Friday, May 11, 2012

  Actual Average Record
Temperature  
Mean Temperature 52 °F -  
Max Temperature 68 °F 70 °F 95 °F (1993)
Min Temperature 37 °F 45 °F 30 °F (1966)
Degree Days  
Heating Degree Days 14    
Growing Degree Days 2 (Base 50)    
Moisture  
Dew Point 35 °F    
Average Humidity 55    
Maximum Humidity 93    
Minimum Humidity 22    
Precipitation  
Precipitation 0.00 in - - ()
Sea Level Pressure  
Sea Level Pressure 29.95 in    
Wind  
Wind Speed 6 mph (West)    
Max Wind Speed 14 mph    
Max Gust Speed 25 mph    
Visibility 10 miles    
Events      
Averages and records for this station are not official NWS values.
T = Trace of Precipitation, MM = Missing Value Source: NWS Daily Summary

Daily Weather History Graph

Daily Weather History Graph

Search for Another Location

Airport or City:

Trip Planner

Search our weather history database for the weather conditions in past years. The results will help you decide how hot, cold, wet, or windy it might be!

Date:

Astronomy

May. 11, 2012 Rise Set
Actual Time 5:38 AM EDT 8:02 PM EDT
Civil Twilight 5:07 AM EDT 8:33 PM EDT
Nautical Twilight 4:29 AM EDT 9:12 PM EDT
Astronomical Twilight 3:46 AM EDT 9:55 PM EDT
Moon 12:39 AM EDT (5/11) 11:09 AM EDT (5/11)
Length of Visible Light 15h 26m
Length of Day
14h 23m
Waning Gibbous, 63% of the Moon is Illuminated
May 11
Waning Gibbous
May 12
Last Quarter
May 20
New
May 28
First Quarter
Jun 4
Full

Hourly Weather History & Observations

Time (EDT) Temp. Windchill Dew Point Humidity Pressure Visibility Wind Dir Wind Speed Gust Speed Precip Events Conditions
12:53 AM 43.0 °F 41.3 °F 37.9 °F 82% 29.82 in 10.0 mi WSW 3.5 mph - N/A   Clear
1:53 AM 39.9 °F - 37.9 °F 93% 29.84 in 10.0 mi Calm Calm - N/A   Scattered Clouds
2:53 AM 42.1 °F 38.4 °F 37.9 °F 85% 29.84 in 10.0 mi WSW 5.8 mph - N/A   Clear
3:53 AM 42.1 °F 40.2 °F 37.0 °F 82% 29.86 in 10.0 mi West 3.5 mph - N/A   Clear
4:53 AM 43.0 °F 40.3 °F 37.0 °F 80% 29.88 in 10.0 mi West 4.6 mph - N/A   Clear
5:53 AM 37.9 °F 33.5 °F 36.0 °F 93% 29.91 in 10.0 mi WSW 5.8 mph - N/A   Clear
6:53 AM 45.0 °F 41.8 °F 39.0 °F 80% 29.93 in 10.0 mi WSW 5.8 mph - N/A   Clear
7:53 AM 50.0 °F - 39.0 °F 66% 29.95 in 10.0 mi WSW 8.1 mph - N/A   Clear
8:53 AM 54.0 °F - 37.9 °F 55% 29.96 in 10.0 mi West 6.9 mph - N/A   Clear
9:53 AM 55.9 °F - 37.0 °F 49% 29.96 in 10.0 mi West 11.5 mph 18.4 mph N/A   Clear
10:53 AM 60.1 °F - 35.1 °F 39% 29.96 in 10.0 mi WNW 12.7 mph 21.9 mph N/A   Clear
11:53 AM 61.0 °F - 33.1 °F 35% 29.96 in 10.0 mi NW 9.2 mph 20.7 mph N/A   Partly Cloudy
12:53 PM 61.0 °F - 35.1 °F 38% 29.96 in 10.0 mi West 10.4 mph 19.6 mph N/A   Clear
1:53 PM 64.0 °F - 33.1 °F 31% 29.94 in 10.0 mi NW 10.4 mph 17.3 mph N/A   Scattered Clouds
2:53 PM 66.0 °F - 32.0 °F 28% 29.94 in 10.0 mi West 13.8 mph 20.7 mph N/A   Scattered Clouds
3:53 PM 66.0 °F - 30.9 °F 27% 29.94 in 10.0 mi West 12.7 mph 20.7 mph N/A   Scattered Clouds
4:53 PM 66.9 °F - 32.0 °F 27% 29.94 in 10.0 mi West 10.4 mph - N/A   Mostly Cloudy
5:53 PM 66.0 °F - 28.0 °F 24% 29.96 in 10.0 mi NW 10.4 mph 25.3 mph N/A   Clear
6:53 PM 66.0 °F - 26.1 °F 22% 29.96 in 10.0 mi WNW 5.8 mph 18.4 mph N/A   Clear
7:53 PM 62.1 °F - 26.1 °F 25% 30.00 in 10.0 mi West 3.5 mph - N/A   Clear
8:53 PM 53.1 °F - 35.1 °F 50% 30.05 in 10.0 mi WSW 3.5 mph - N/A   Clear
9:53 PM 46.9 °F - 37.0 °F 68% 30.09 in 10.0 mi Calm Calm - N/A   Clear
10:53 PM 46.0 °F - 37.0 °F 71% 30.11 in 10.0 mi Calm Calm - N/A   Clear
11:53 PM 43.0 °F 41.3 °F 37.0 °F 80% 30.12 in 10.0 mi SW 3.5 mph - N/A   Clear